User: anonymous   Login
Location: Ward Pound Ridge Reservation
(41.2500°N, 73.6000°W)
Time: 15:51:24
(UTC-04:00)
Language:

XW-2D - Orbit

View from above orbital plane
View from above orbital plane
View from above satellite
View from above satellite

Ground track
Ground track

The orbit data is extracted from the following two-line orbital elements,

1 40907U 15049J   18199.50399770  .00000548  00000-0  32474-4 0  9998
2 40907  97.4573 202.1157 0012690 280.6613  79.3191 15.15393551156245
Epoch (UTC): 18 July 2018 12:05:45
Eccentricity: 0.0012690
inclination: 97.4573°
perigee height: 511 km
apogee height: 528 km
right ascension of ascending node: 202.1157°
argument of perigee: 280.6613°
revolutions per day: 15.15393551
mean anomaly at epoch: 79.3191°
orbit number at epoch: 15624

The dashed part of the orbit path shows where the satellite is in the earth's shadow,  

DLR